sat.trackr.live / text

‹ back to catalog

PROPCUBE 3

NORAD 40973 · 2015-058K

PAYLOAD ACTIVE UNKNOWN

§ Identity

Operator
Country
US
Launch date
2015-10-08
Launch site
AFWTR
Launch vehicle
Mass (kg)
RCS (m²)

Purposes: tech_demo

External: N2YO · Heavens-Above · Gunter

§ Orbital elements

Epoch: 2026-09-20T03:51:17.839296Z

Period
96.34 min
Inclination
64.7675°
Eccentricity
0.0131881
Mean motion
14.94780284 rev/d
Perigee alt
491.2 km
Apogee alt
674.9 km
Semi-major
6,961.2 km
B*
1.2790e-4
RAAN
315.6615°
Arg perigee
23.9706°
Mean anomaly
336.7471°
Rev number
12,899

§ Raw data

PROPCUBE 31 40973U 15058K   26263.16062314  .00001469  00000+0  12790-3 0  99952 40973  64.7675 315.6615 0131881  23.9706 336.7471 14.94780284128993

JSON: /api/v1/satellites/40973 · /tle

For live sub-satellite position, see the globe view (requires WebGL).

§ Visibility from observer

Set your observer location to see the next 7 days of passes ≥ 10°. The values pass through the URL so the page stays shareable.

No JS? Fill the form by hand. The geolocation button needs JavaScript.